Showing default

OPS 3674 (VELA 4), 837

Orbit data source: Space-Track

OPS 3674 (VELA 4), 837 is a payload satellite owned by USAF SSD (US) in HEO that was launched on Fri, 17 Jul 1964 UTC via an ATLAS AGENA D launch vehicle from the Air Force Eastern Test Range (AFETR). Payload-class satellites include a variety of spacecraft equipped with specific instruments for various scientific and technological missions. These include communications satellites like Starlink; space stations such as the ISS; scientific satellites like the Hubble; Earth observation satellites from companies like Planet Labs, Umbra, and HawkEye 360; GPS; miniature CubeSats for education and research; and military/defense satellites.

Loading next visibility...
Identifier
837, 1964-040B
Orbit
HEO
Country
Flag of USUS
Related business
Manufacturer
TRW
Mission
Spacecraft
Bus & Motor
VELA, BE-3
Mass
~217 kg wet, 125 kg dry
Launch date (UTC)
1964-07-17 (61 years ago)
Launch vehicle
ATLAS AGENA D
Launch site
Air Force Eastern Test Range (AFETR)
Object type
Payload
Rocket body
Debris
Shape & HBR
Unknown
Radar Cross Section
Medium (>0.1 m² and <1 m²)

Expand to show TLE details & history
Last TLE update: 3 months ago

TLE from 3 months ago
0 OPS 3674 (VELA 4)
1   837U 64040B   25267.08260992  .00000086  00000-0  00000+0 0  9993
2   837  48.8014 128.4628 5006560 257.7278   0.4454  0.23999503 54080
Epoch: 2025-09-24T01:58Z
TLE epoch observation values (Epoch: 2025-09-24T01:58:57.497Z)
Latitude
-47.27128°
Longitude
-12.96938°
Altitude
47,688.75 km
Speed
3.332 km/s
True Right ascension
01h 19m 44s
True Declination
-47° 14' 55"
Sunlit
Object was in daylight at epoch
Visualization orbit readout
Latitude
Unknown
Longitude
Unknown
Altitude
Unknown
Speed
Unknown
Apparent Right ascension
Unknown
Apparent Declination
Unknown
Sunlit
N/A
Visualization observer readout
Local Sidereal Time
07:37:12
Azimuth
Unknown
Elevation
Unknown
Doppler factor
Unknown
Orbital elements
Apogee altitude
157,762.254 km
Perigee altitude
48,239.656 km
Semi-major axis
109,379.092 km
Eccentricity
0.50066
Inclination
48.8014°
RAAN
128.4628°
Arg. of periapsis
257.7278°
True anomaly
1.54617°
Mean anomaly
0.4454°
Eccentric anomaly
0.89193°
Mean motion
0.06 °/min
Orbital period
6,000.13 mins
BSTAR
0
Loading maneuver chart data...
Computing Atmospheric mass density...
Loading historical data...
Loading historical data...
Loading historical data...
Loading historical data...
Loading historical data...
Loading historical data...
Loading historical data...
Other satellites on launch #40 in the year 1964 (1964-07-17 UTC)

Documentation

Showing up to 5 results
|